Погода Александровск-Сахалинский

Погода Александровск-Сахалинский : погода сейчас, прогноз погоды и архив. Всё, что Вы хотите узнать о погоде Александровск-Сахалинский!

Хотите узнать прогноз погоды Александровск-Сахалинский? Тогда Вам сюда: Погода Александровск-Сахалинский

Поиск расширенной информации на нашем сайте:

Другие новости

Новости СМИ2

Главная страница сайта

Новости сайта

03.07.2017

Напоминаем, что на нашем специализированном сайте Метеоцентр.Азия вы можете получить высокодетализированные автоматические прогнозы погоды по пунктам России, СНГ и мира в авиационном формате (включающие направление и скорость ветра, видимость, явления погоды, количество и форму облачности, нижнюю и верхнюю границу облачности).


Погода Александровск-Сахалинский - сегодня

Время (UTC), дата Ветер
(°,м/с) 
Видим.   Явления Облачность Т
(°С)
Тd
(°С)
f(%) Тe
(°С)
Pmin
(гПа)
dP
(гПа)
Po
(мм)
O2
(г/м3)
Тmin Tmax R s Состояние
почвы
06 16.10.17 310 (СЗ) 7-12{13}  20000 м  слаб. крупа{ливн. осадки}  10/8 600 м кучево-дожд., средняя, верхняя 
[Cb cap|Ac trans|Ci fib]
+3.8 -4.1 56 +1  1018.5  -0.1  761  303           
09 16.10.17 300 (СЗ) 7-14{20}  50000 м  {ливн. осадки}  8/8 600 м кучево-дожд. 
[Cb cap]
+3.9 -6.9 45 +1  1019  0.6  761  303    +4.7  0.0     
12 16.10.17 320 (СЗ) 5-9{14}  50000 м  {ливн. осадки}  10/10 600 м кучево-дожд. 
[Cb cap]
+3.4 -6.6 48 +1  1019.3  0.2  762  304           
15 16.10.17 300 (СЗ) 4-7{11}  50000 м    6/6 600 м кучево-дожд. 
[Cb cap]
+3.5 -7.3 45 +2  1018.8  -0.5  761  304           
18 16.10.17 300 (СЗ) 4-8{12}  40000 м    10/10 600 м кучево-дожд. 
[Cb cap]
+3.4 -8.6 41 +1  1018.2  -0.5  761  304           
21 16.10.17 230 (ЮЗ) 2-4{08}  20000 м    10/3 600 м средняя 
[Sc|Ac trans]
+1.3 -7.1 53 +1  1017.7  -0.5  760  306  +1.3        замёрзшая 
00 17.10.17 320 (СЗ) 3-7{07}  20000 м    9/8 600 м кучево-дожд., средняя 
[Cb cap|Ac trans]
+4.2 -6.8 45 +3  1017.8  0.1  760  302  -0.2         
03 17.10.17 330 (СЗ) 3-6{08}  20000 м    8/1 600 м кучево-дожд., средняя, верхняя 
[Cb cap|Ac trans|Ci sp]
+4.5 -8.5 38 +3  1017.7  0.1  760  302           
06 17.10.17 330 (СЗ) 3-7{09}  20000 м    6/0 средняя, верхняя 
[Ac trans|Ci sp]
+3.8 -9.1 38 +3  1018.1  0.4  761  303           
09 17.10.17 330 (СЗ) 4-6{09}  50000 м    3/1 600 м кучево-дожд., средняя 
[Cb cap|Ac trans]
+2.2 -9.5 42 1019.2  1.1  761  305    +5.3       
12 17.10.17 140 (ЮВ) 2-3{10}  50000 м    1/1 600 м кучево-дожд. 
[Cb cap]
-2.9 -7.9 68 -4  1020.8  1.5  763  311           
15 17.10.17 140 (ЮВ) 2-4{04}  50000 м    3/3 600 м кучево-дожд. 
[Cb cap]
-4 -8 74 -5  1021.4  0.5  763  313           
18 17.10.17 310 (СЗ) 5-10{10}  40000 м    4/4 600 м кучево-дожд. 
[Cb cap]
+0.4 -7.3 56 -3  1021.7  0.4  763  308           
21 17.10.17 320 (СЗ) 4-8{10}  10 км  в посл. час крупа  9/9 600 м кучево-дожд. 
[Cb cap]
+0.6 -6.7 58 -2  1022.3  0.6  764  308  -4.2    0.0    замёрзшая 
00 18.10.17 310 (СЗ) 4-8{09}  20000 м  слаб. крупа{ливн. осадки}  8/8 600 м кучево-дожд. 
[Cb cap]
+1.3 -5.9 59 -1  1023.2  0.9  764  307           
03 18.10.17 300 (СЗ) 4-6{09}  20000 м    4/4 600 м 
[Cu med, cong]
+2.9 -6.3 51 +1  1023.5  0.3  765  306           
06 18.10.17 310 (СЗ) 3-7{07}  20000 м    8/6 600 м средняя, верхняя 
[Cu med, cong|Ac lent|Ci fib]
+3.7 -6.2 48 +2  1023.9  0.4  765  305           
09 18.10.17 290 (З) 3-6{07}  50000 м    ясно 
+2.1 -7.5 49 +1  1024.6  0.7  765  307    +4.2  0.0     
12 18.10.17 120 (ЮВ) 3-4{05}  50000 м    ясно 
-3.2 -6.9 76 -5  1025.1  0.4  766  313           
15 18.10.17 130 (ЮВ) 4-6{06}  50000 м    ясно 
-3.4 -7.6 73 -6  1024.7  -0.4  765  313           
18 18.10.17 130 (ЮВ) 3-5{06}  50000 м    ясно 
-2.3 -6.8 71 -4  1024.3  -0.3  765  312           
21 18.10.17 120 (ЮВ) 2-3{05}  20000 м    4/3 600 м кучево-дожд., средняя 
[Cb cap|Ac trans]
-4.5 -6.9 83 -6  1024.3  0.1  765  314  -4.5        замёрзшая 
00 19.10.17 140 (ЮВ) 1-3{04}  20000 м    10/10 600 м кучево-дожд. 
[Cb cap]
+1.1 -4.4 67 +2  1023.7  -0.5  765  307  -4.6         
03 19.10.17 190 (Ю) 3-5{06}  20000 м    9/9 600 м кучево-дожд. 
[Cb cap]
+4.2 -4.1 55 +3  1022.6  -1  764  304           
06 19.10.17 200 (Ю) 4-7{09}  20000 м    9/3 600 м кучево-дожд., средняя, верхняя 
[Cb cap|Ac trans|Ci sp]
+3.7 -5.7 50 +2  1022.4  -0.3  764  304           
Время (UTC), дата Ветер
(°,м/с) 
Видим.   Явления Облачность Т
(°С)
Тd
(°С)
f(%) Тe
(°С)
Pmin
(гПа)
dP
(гПа)
Po
(мм)
O2
(г/м3)
Тmin Tmax R s Состояние
почвы

Для получения пояснительной информации подведите курсор к названию столбца.

ПОГОДА Александровск-Сахалинский - архив

Всё, что Вы хотите узнать о погоде Александровск-Сахалинский - удобно и подробно!

Выберите нужную дату (начиная с 1 января 2015* года) и нажмите кнопку "Найти".
Будут отображены архивные сводки погоды по пункту Александровск-Сахалинский, начиная с указанной даты.


Отображать данные в формате CSV (для использования в таблицах Excel)


Внимание! Наш архив погоды предназначен исключительно для личного некоммерческого использования в познавательных целях. Если Вам необходимы официальные справки о состоянии погоды (для производственных, юридических, коммерческих и т.п. целей), обращайтесь в органы Росгидромета.

*Примечание: данная дата относится к архиву по метеостанциям СССР (Россия, СНГ, Балтия).
Архив по метеостанциям Зарубежной Европы и Азии (кроме Китая) хранится 10 дней, по другим регионам земного шара (Китай, Африка, Америка, Австралия, Океания) - 1 день.

Александровск-Сахалинский - район местоположения метеостанции


Название, широта, долгота, высота метеостанции:
Александровск-Сахалинский 50.9°ш. 142.2°д. 31 м над ур. моря [Российская Федерация]

Дополнительная информация

В oтличие oт бoльшинства пoгoдных сайтoв мы публикуем пoдрoбную метеoинфoрмацию в детальнoм прoфессиoнальнoм фoрмате.

Характеристики температуры и влажнoсти вoздуха измеряются на высoте 2 м в тени вдали oт зданий и деревьев.
Скoрoсть ветра измеряется на высoте 10 м (на урoвне рoста челoвека скoрoсть ветра ниже в 1.5-2 раза). Если метеoстанция нахoдится в гoрoде или в лесу, тo скoрoсть ветра занижена на 2-4 м/с пo сравнению с oткрытым местoм. Скoрoсть ветра над акватoриями крупных рек и oзёр, а также на вершинах хoлмoв на 2-5 м/с выше, чем в oбычных услoвиях.
Атмoсфернoе давление в разных тoчках местнoсти мoжет значительнo oтличаться oт давления на метеoстанции, в зависимoсти oт услoвий рельефа (при пoдъёме на 10 м давление пoнижается примернo на 1 мм рт.ст.).